Time,TemperatureF,DewpointF,PressureIn,WindDirection,WindDirectionDegrees,WindSpeedMPH,WindSpeedGustMPH,Humidity,HourlyPrecipIn,Conditions,Clouds,dailyrainin,SoftwareType,DateUTC
2013-03-11 21:05:00,28.8,21.6,29.76,WNW,293,4.0,-999.0,74,0.00,,,0.00,Wunderground v.1.15,2013-03-12 02:05:00,
2013-03-11 21:10:00,28.8,21.6,29.76,WNW,293,5.0,-999.0,74,0.00,,,0.00,Wunderground v.1.15,2013-03-12 02:10:00,
2013-03-11 21:15:00,28.7,21.5,29.76,WNW,293,4.0,-999.0,74,0.00,,,0.00,Wunderground v.1.15,2013-03-12 02:15:00,
2013-03-11 21:20:00,28.7,21.5,29.76,WNW,293,4.0,-999.0,74,0.00,,,0.00,Wunderground v.1.15,2013-03-12 02:20:00,
2013-03-11 21:25:00,28.7,21.5,29.76,WNW,293,4.0,-999.0,74,0.00,,,0.00,Wunderground v.1.15,2013-03-12 02:25:00,
2013-03-11 21:30:00,28.7,21.8,29.77,WNW,293,5.0,-999.0,75,0.00,,,0.00,Wunderground v.1.15,2013-03-12 02:30:00,
2013-03-11 21:35:00,28.5,21.6,29.77,WNW,293,6.0,-999.0,75,0.00,,,0.00,Wunderground v.1.15,2013-03-12 02:35:00,
2013-03-11 21:40:00,28.7,22.1,29.77,West,270,5.0,-999.0,76,0.00,,,0.00,Wunderground v.1.15,2013-03-12 02:40:00,
2013-03-11 21:45:00,28.5,21.6,29.77,WNW,293,5.0,-999.0,75,0.00,,,0.00,Wunderground v.1.15,2013-03-12 02:45:00,
2013-03-11 21:50:00,28.5,21.6,29.77,West,270,5.0,-999.0,75,0.00,,,0.00,Wunderground v.1.15,2013-03-12 02:50:00,
2013-03-11 21:55:00,28.4,21.8,29.77,West,270,4.0,-999.0,76,0.00,,,0.00,Wunderground v.1.15,2013-03-12 02:55:00,
2013-03-11 22:00:00,28.4,21.8,29.77,West,270,3.0,-999.0,76,0.00,,,0.00,Wunderground v.1.15,2013-03-12 03:00:00,
2013-03-11 22:05:00,28.4,22.1,29.77,West,270,3.0,-999.0,77,0.00,,,0.00,Wunderground v.1.15,2013-03-12 03:05:00,
2013-03-11 22:10:00,28.4,22.1,29.77,West,270,2.0,-999.0,77,0.00,,,0.00,Wunderground v.1.15,2013-03-12 03:10:00,
2013-03-11 22:15:00,28.4,22.1,29.78,West,270,3.0,-999.0,77,0.00,,,0.00,Wunderground v.1.15,2013-03-12 03:15:00,
2013-03-11 22:20:00,28.4,22.1,29.78,West,270,4.0,-999.0,77,0.00,,,0.00,Wunderground v.1.15,2013-03-12 03:20:00,
2013-03-11 22:25:00,28.5,21.9,29.78,West,270,5.0,-999.0,76,0.00,,,0.00,Wunderground v.1.15,2013-03-12 03:25:00,
2013-03-11 22:30:00,28.5,21.9,29.78,West,270,4.0,-999.0,76,0.00,,,0.00,Wunderground v.1.15,2013-03-12 03:30:00,
2013-03-11 22:35:00,28.5,21.9,29.78,West,270,3.0,-999.0,76,0.00,,,0.00,Wunderground v.1.15,2013-03-12 03:35:00,
2013-03-11 22:40:00,28.5,21.9,29.78,West,270,5.0,-999.0,76,0.00,,,0.00,Wunderground v.1.15,2013-03-12 03:40:00,
2013-03-11 22:45:00,28.7,21.8,29.79,West,270,5.0,-999.0,75,0.00,,,0.00,Wunderground v.1.15,2013-03-12 03:45:00,
2013-03-11 22:50:00,28.7,21.8,29.79,West,270,5.0,-999.0,75,0.00,,,0.00,Wunderground v.1.15,2013-03-12 03:50:00,
2013-03-11 22:55:00,28.7,21.8,29.79,West,270,4.0,-999.0,75,0.00,,,0.00,Wunderground v.1.15,2013-03-12 03:55:00,
2013-03-11 23:00:00,28.5,21.9,29.78,West,270,4.0,-999.0,76,0.00,,,0.00,Wunderground v.1.15,2013-03-12 04:00:00,
2013-03-11 23:05:00,28.5,21.9,29.78,West,270,4.0,-999.0,76,0.00,,,0.00,Wunderground v.1.15,2013-03-12 04:05:00,
2013-03-11 23:10:00,28.5,21.9,29.78,West,270,5.0,-999.0,76,0.00,,,0.00,Wunderground v.1.15,2013-03-12 04:10:00,
2013-03-11 23:15:00,28.5,21.9,29.78,West,270,5.0,-999.0,76,0.00,,,0.00,Wunderground v.1.15,2013-03-12 04:15:00,
2013-03-11 23:20:00,28.4,21.8,29.78,West,270,4.0,-999.0,76,0.00,,,0.00,Wunderground v.1.15,2013-03-12 04:20:00,
2013-03-11 23:25:00,28.4,21.8,29.78,West,270,5.0,-999.0,76,0.00,,,0.00,Wunderground v.1.15,2013-03-12 04:25:00,
2013-03-11 23:30:00,28.4,21.8,29.78,West,270,6.0,-999.0,76,0.00,,,0.00,Wunderground v.1.15,2013-03-12 04:30:00,
2013-03-11 23:35:00,28.4,21.8,29.78,West,270,5.0,-999.0,76,0.00,,,0.00,Wunderground v.1.15,2013-03-12 04:35:00,
2013-03-11 23:40:00,28.2,21.6,29.78,West,270,5.0,-999.0,76,0.00,,,0.00,Wunderground v.1.15,2013-03-12 04:40:00,
2013-03-11 23:45:00,28.2,21.6,29.78,West,270,7.0,-999.0,76,0.00,,,0.00,Wunderground v.1.15,2013-03-12 04:45:00,
2013-03-11 23:50:00,27.9,21.6,29.78,West,270,8.0,-999.0,77,0.00,,,0.00,Wunderground v.1.15,2013-03-12 04:50:00,
2013-03-11 23:55:00,27.6,21.9,29.78,WNW,293,8.0,-999.0,79,0.00,,,0.00,Wunderground v.1.15,2013-03-12 04:55:00,